FW9516 Weather Reports


time (UTC)temp
C
wind
direction
speed
KPH
gust
KPH
rain 1hr
cm
rain 24hr
cm
rain mn
cm
humidity
%
barometer
mb
20260503210028 25 352 4.8 11.3 0.00 0.00 0.00 46 1011.7
20260503204530 25 30 3.2 16.1 0.00 0.00 0.00 46 1011.9
20260503203027 25 352 4.8 17.7 0.00 0.00 0.00 48 1012.0
20260503201531 26 360 4.8 14.5 0.00 0.00 0.00 46 1012.1
20260503200029 25 273 4.8 19.3 0.00 0.00 0.00 48 1012.3
20260503194531 25 0 3.2 14.5 0.00 0.00 0.00 48 1012.6
20260503193039 24 295 4.8 14.5 0.00 0.00 0.00 50 1012.8
20260503191528 24 281 6.4 14.5 0.00 0.00 0.00 49 1013.0
20260503190031 25 355 4.8 12.9 0.00 0.00 0.00 48 1013.1
20260503184533 24 0 3.2 14.5 0.00 0.00 0.00 51 1013.1
20260503183030 23 350 1.6 9.7 0.00 0.00 0.00 51 1013.3
20260503181528 22 252 3.2 11.3 0.00 0.00 0.00 54 1013.5
20260503180030 22 276 3.2 11.3 0.00 0.00 0.00 57 1013.6
20260503174533 21 333 3.2 9.7 0.00 0.00 0.00 56 1013.6
20260503173028 22 336 1.6 8.0 0.00 0.00 0.00 56 1013.6
20260503171530 21 61 1.6 12.9 0.00 0.00 0.00 55 1013.7
20260503081531 11 0 0.0 1.6 0.00 0.00 0.00 85 1014.4
20260503071533 12 0 0.0 0.0 0.00 0.00 0.00 83 1014.5
20260503054537 13 0 0.0 1.6 0.00 0.00 0.00 77 1014.2
20260503053028 14 0 0.0 0.0 0.00 0.00 0.00 76 1014.4
20260503051531 14 0 0.0 0.0 0.00 0.00 0.00 75 1014.3
20260503050028 15 0 0.0 0.0 0.00 0.00 0.00 74 1014.3
20260503044536 15 0 0.0 0.0 0.00 0.00 0.00 72 1014.3
20260503043029 16 0 0.0 0.0 0.00 0.00 0.00 70 1014.0
20260503041530 16 0 0.0 0.0 0.00 0.00 0.00 68 1013.8
20260503040030 17 0 0.0 0.0 0.00 0.00 0.00 65 1013.6
20260503034528 18 0 0.0 1.6 0.00 0.00 0.00 62 1013.3
20260503033030 18 0 0.0 1.6 0.00 0.00 0.00 59 1013.0
20260503031530 20 0 0.0 3.2 0.00 0.00 0.00 56 1013.0
20260503030029 21 283 0.0 3.2 0.00 0.00 0.00 53 1012.7
20260503024530 22 327 1.6 6.4 0.00 0.00 0.00 50 1012.7
20260503023030 22 40 1.6 6.4 0.00 0.00 0.00 50 1012.6
20260503021529 22 0 1.6 11.3 0.00 0.00 0.00 50 1012.5
20260503020027 23 53 3.2 8.0 0.00 0.00 0.00 48 1012.6
20260503014528 23 9 1.6 6.4 0.00 0.00 0.00 48 1012.4
20260503013036 23 355 1.6 11.3 0.00 0.00 0.00 49 1012.6
20260503011534 23 30 1.6 14.5 0.00 0.00 0.00 50 1012.8
20260503010028 23 15 4.8 11.3 0.00 0.00 0.00 48 1012.7
20260503004531 23 325 3.2 11.3 0.00 0.00 0.00 47 1012.7
20260503003027 24 344 1.6 12.9 0.00 0.00 0.00 48 1012.9
20260503001530 24 5 3.2 11.3 0.00 0.00 0.00 49 1013.0
20260503000028 23 0 3.2 14.5 0.00 0.00 0.00 51 1013.1
20260502234527 23 0 6.4 14.5 0.00 0.00 0.00 53 1013.2
20260502233029 23 352 6.4 16.1 0.00 0.00 0.00 54 1013.4
20260502231529 23 303 8.0 16.1 0.00 0.00 0.00 52 1013.5
20260502230028 23 15 6.4 14.5 0.00 0.00 0.00 53 1013.6
20260502224527 23 314 4.8 16.1 0.00 0.00 0.00 51 1014.0
20260502223029 22 301 3.2 14.5 0.00 0.00 0.00 54 1014.2
20260502221528 22 294 4.8 14.5 0.00 0.00 0.00 56 1014.3
20260502220029 22 320 4.8 19.3 0.00 0.00 0.00 57 1014.4
20260502214536 22 355 3.2 14.5 0.00 0.00 0.00 56 1014.5
20260502213031 21 351 4.8 14.5 0.00 0.00 0.00 58 1014.8
20260502211529 22 32 3.2 12.9 0.00 0.00 0.00 56 1014.8